Location: Hopkins Observatory
(42.6965°N, 73.1843°W)
Time: 00:56:33
(UTC-05:00)

Amateur Radio Satellites - All Passes

Search period start: 20 December 2014 00:26
Search period end: 21 December 2014 00:26
Location: Hopkins Observatory, 42.6965°N, 73.1843°W

Satellite Date Start Highest point End Downlink Frequencies (MHz)
Time Altitude Azimuth
Oscar 19 20 Dec 00:34:08 00:38:18 24° 94° (E) 00:42:26 437.125/150
PCSat 20 Dec 00:34:17 00:37:08 15° 257° (WSW) 00:39:58 145.827
POPSAT HIP 1 20 Dec 00:35:29 00:36:01 10° 300° (WNW) 00:36:33 437.405
YUBILEINY 20 Dec 00:44:09 00:52:36 52° 285° (WNW) 01:01:05 435.215
ITAMSAT 1 20 Dec 00:49:53 00:51:35 12° 88° (E) 00:53:16 435.822/435.867
O/OREOS (USA 219) 20 Dec 01:05:21 01:09:44 58° 296° (WNW) 01:14:09 437.305
ITUPSAT 1 20 Dec 01:19:28 01:23:47 33° 263° (W) 01:28:08 437.325
SWISSCUBE 20 Dec 01:19:31 01:23:43 30° 264° (W) 01:27:56 437.505
STARS 20 Dec 01:22:54 01:27:00 41° 70° (ENE) 01:31:07 437.465
KKS-1 20 Dec 01:24:25 01:28:47 64° 73° (ENE) 01:33:11 437.445
AUBIESAT-1 20 Dec 01:28:34 01:33:05 40° 258° (WSW) 01:37:41 437.475
BEESAT 20 Dec 01:45:48 01:49:07 19° 268° (W) 01:52:28 436.000
M-CUBED/EXP-1 PRIME 20 Dec 01:54:40 01:58:20 21° 263° (W) 02:02:04 437.505
Oscar 19 20 Dec 02:12:53 02:17:48 44° 291° (WNW) 02:22:42 437.125/150
VERMONT LUNAR 20 Dec 02:14:29 02:15:54 12° 148° (SSE) 02:17:19 437.305
Gurwin Techsat 1B 20 Dec 02:16:49 02:21:59 50° 99° (E) 02:27:06 435.225
AIST 1 20 Dec 02:22:38 02:25:26 17° 70° (ENE) 02:28:12
ITAMSAT 1 20 Dec 02:26:32 02:31:43 85° 285° (WNW) 02:36:54 435.822/435.867
MOZHAYETS 4 20 Dec 02:31:02 02:32:38 12° 60° (ENE) 02:34:13
HORYU 2 20 Dec 02:45:39 02:49:50 35° 98° (E) 02:53:58 437.375
AO-7 20 Dec 02:57:38 03:04:10 25° 93° (E) 03:10:39 29.400- 29.500
STARS 20 Dec 03:00:33 03:03:39 19° 267° (W) 03:06:46 437.465
KKS-1 20 Dec 03:04:00 03:05:51 12° 270° (W) 03:07:43 437.445
JAS-2 20 Dec 03:42:30 03:45:19 14° 87° (E) 03:48:01 435.910
VERMONT LUNAR 20 Dec 03:50:21 03:53:39 38° 163° (SSE) 03:56:57 437.305
Gurwin Techsat 1B 20 Dec 03:57:31 04:01:36 23° 297° (WNW) 04:05:40 435.225
AIST 1 20 Dec 03:59:16 04:03:19 41° 268° (W) 04:07:19
PHONESAT 2.4 20 Dec 04:00:38 04:03:56 33° 161° (SSE) 04:07:15 2401.200-2431.200
MOZHAYETS 4 20 Dec 04:04:30 04:09:09 85° 257° (WSW) 04:13:51
ITAMSAT 1 20 Dec 04:08:26 04:10:24 12° 303° (WNW) 04:12:23 435.822/435.867
HORYU 2 20 Dec 04:22:42 04:26:18 24° 294° (WNW) 04:29:53 437.375
GONETS M04 20 Dec 04:42:42 04:50:48 42° 87° (E) 04:58:53
AO-7 20 Dec 04:49:18 04:57:40 75° 292° (WNW) 05:05:58 29.400- 29.500
SO-50 20 Dec 04:58:57 05:03:31 38° 48° (NE) 05:08:06 436.795
PRISM 20 Dec 05:04:33 05:08:45 69° 74° (ENE) 05:12:58 437.425
Cubesat XI-IV 20 Dec 05:16:56 05:21:01 22° 93° (E) 05:25:04 437.490
STRAND 1 20 Dec 05:19:30 05:24:18 43° 69° (ENE) 05:29:07 437.568
JAS-2 20 Dec 05:25:31 05:31:14 72° 287° (WNW) 05:36:27 435.910
CUBESAT XI-V 20 Dec 05:25:43 05:30:15 52° 72° (ENE) 05:34:47 437.345
VERMONT LUNAR 20 Dec 05:28:16 05:31:45 62° 180° (S) 05:35:15 437.305
PHONESAT 2.4 20 Dec 05:38:47 05:42:23 61° 177° (S) 05:45:58 2401.200-2431.200
CUTE-I 20 Dec 05:49:43 05:54:46 43° 99° (E) 05:59:48 437.470
GONETS M04 20 Dec 06:39:11 06:47:32 45° 287° (WNW) 06:55:55
SO-50 20 Dec 06:39:41 06:43:59 31° 246° (WSW) 06:48:16 436.795
AO-7 20 Dec 06:43:47 06:49:05 19° 312° (NW) 06:54:23 29.400- 29.500
PRISM 20 Dec 06:43:47 06:44:44 11° 270° (W) 06:45:40 437.425
Cubesat XI-IV 20 Dec 06:56:14 07:01:21 49° 290° (WNW) 07:06:26 437.490
STRAND 1 20 Dec 06:59:34 07:03:39 24° 266° (W) 07:07:44 437.568
CUBESAT XI-V 20 Dec 07:05:00 07:07:59 17° 269° (W) 07:10:59 437.345
VERMONT LUNAR 20 Dec 07:06:34 07:09:52 38° 197° (SSW) 07:13:10 437.305
HO-68 20 Dec 07:07:54 07:09:47 11° 86° (E) 07:11:40 435.675
JAS-2 20 Dec 07:14:02 07:15:06 11° 308° (NW) 07:16:10 435.910
PHONESAT 2.4 20 Dec 07:17:25 07:20:53 44° 194° (SSW) 07:24:22 2401.200-2431.200
CUTE-I 20 Dec 07:30:16 07:34:36 26° 296° (WNW) 07:38:56 437.470
CANX-2 20 Dec 07:35:00 07:36:31 12° 89° (E) 07:38:03 2200.000
BRITE-PL 20 Dec 07:42:00 07:45:08 17° 93° (E) 07:48:23 437.365/2234.400
COMPASS 1 20 Dec 07:57:48 08:00:00 14° 90° (E) 08:02:11 437.405
SEEDS 20 Dec 08:01:55 08:04:56 18° 92° (E) 08:07:55 437.485
CUTE 1.7 + AOD 2 20 Dec 08:04:18 08:07:44 23° 94° (E) 08:11:08 437.475
GOMX 1 20 Dec 08:10:53 08:14:47 24° 95° (E) 08:18:51 467.674
MaSat-1 20 Dec 08:31:44 08:33:59 46° 114° (ESE) 08:36:09 437.345
UNISAT 6 20 Dec 08:37:48 08:40:51 19° 64° (ENE) 08:43:58 437.425
DOVE 4 20 Dec 08:38:26 08:42:47 34° 97° (E) 08:47:19 437.250
Oscar 11 20 Dec 08:39:09 08:42:07 18° 92° (E) 08:45:04 145.826/435.025
DUCHIFAT 1 20 Dec 08:45:10 08:47:18 14° 63° (ENE) 08:49:27 145.980
VERMONT LUNAR 20 Dec 08:46:11 08:47:37 12° 212° (SSW) 08:49:03 437.305
BUGSAT 1 20 Dec 08:47:36 08:48:52 11° 62° (ENE) 08:50:09 437.445
UKube-1 20 Dec 08:47:41 08:50:15 15° 92° (E) 08:52:49 .
DANDE 20 Dec 08:51:26 08:54:13 22° 85° (E) 08:57:38 436.750
HO-68 20 Dec 08:51:33 08:58:43 70° 104° (ESE) 09:05:49 435.675
CUBEBUG 2 20 Dec 08:55:07 08:58:23 19° 92° (E) 09:01:41 437.445
AAUSAT CUBESAT 2 20 Dec 08:56:50 09:01:01 54° 100° (E) 09:05:09 437.432
PHONESAT 2.4 20 Dec 08:56:51 08:59:04 15° 210° (SSW) 09:01:17 2401.200-2431.200
QB50P2 20 Dec 08:57:23 09:00:21 19° 65° (ENE) 09:03:20 145.880/145.840
YUBILEINY 20 Dec 08:57:51 09:03:23 18° 59° (ENE) 09:08:54 435.215
POLYITAN 1 20 Dec 09:05:38 09:08:56 23° 67° (ENE) 09:12:16 437.675
CINEMA 3 20 Dec 09:07:34 09:12:02 40° 98° (E) 09:16:38 145.822/145.860
ZACube-1 20 Dec 09:08:02 09:11:09 18° 92° (E) 09:14:17 437.345
NANOSAT C BR1 20 Dec 09:08:13 09:11:36 24° 67° (ENE) 09:14:59 145.865
ANTELSAT 20 Dec 09:08:28 09:12:30 37° 70° (ENE) 09:16:39 437.575/2403.000
CANX-2 20 Dec 09:08:35 09:12:53 65° 286° (WNW) 09:17:09 2200.000
BRITE-PL 20 Dec 09:19:20 09:23:52 53° 287° (WNW) 09:28:45 437.365/2234.400
QB50P1 20 Dec 09:22:04 09:25:50 33° 70° (ENE) 09:29:38 145.935-145.965
COMPASS 1 20 Dec 09:31:52 09:36:02 53° 287° (WNW) 09:40:10 437.405
UWE-3 20 Dec 09:33:33 09:37:51 39° 98° (E) 09:42:13 435.000/436.395/437.385
FUNcube-1 20 Dec 09:34:11 09:38:17 33° 97° (E) 09:42:24 145.935
O/OREOS (USA 219) 20 Dec 09:35:28 09:39:30 31° 59° (ENE) 09:43:33 437.305
SEEDS 20 Dec 09:36:54 09:40:55 40° 289° (WNW) 09:44:55 437.485
CUTE 1.7 + AOD 2 20 Dec 09:39:50 09:43:42 33° 290° (WNW) 09:47:33 437.475
CUSAT 1 20 Dec 09:43:48 09:47:23 69° 283° (WNW) 09:52:16 437.405
TIGRISAT 20 Dec 09:43:56 09:48:17 88° 75° (ENE) 09:52:46 435.000
GOMX 1 20 Dec 09:48:35 09:52:57 38° 289° (WNW) 09:57:35 467.674
POPSAT HIP 1 20 Dec 09:50:14 09:54:24 69° 75° (ENE) 09:58:36 437.405
AISAT 20 Dec 09:50:35 09:54:20 26° 96° (E) 09:58:04 437.250
DX 1 20 Dec 09:50:46 09:55:08 77° 103° (ESE) 09:59:28 434.975-435.025
DELFI C3 20 Dec 09:51:10 09:55:19 88° 285° (WNW) 09:59:25 145.870
50 SAT 20 Dec 09:53:24 09:56:47 24° 95° (E) 10:00:08 437.505
CUBEBUG 1 20 Dec 09:59:56 10:01:36 12° 90° (E) 10:03:15 437.445
HUMSAT D 20 Dec 10:11:26 10:15:38 48° 99° (E) 10:19:50 437.325/437.525
UNISAT 6 20 Dec 10:13:08 10:17:18 44° 262° (W) 10:21:36 437.425
Oscar 11 20 Dec 10:14:20 10:18:29 43° 289° (WNW) 10:22:36 145.826/435.025
DOVE 4 20 Dec 10:16:25 10:20:26 28° 292° (WNW) 10:24:38 437.250
DUCHIFAT 1 20 Dec 10:18:34 10:22:41 57° 259° (W) 10:26:51 145.980
BUGSAT 1 20 Dec 10:19:45 10:23:50 68° 258° (WSW) 10:27:54 437.445
UKube-1 20 Dec 10:22:30 10:26:42 49° 288° (WNW) 10:30:52 .
CUBEBUG 2 20 Dec 10:30:51 10:35:17 47° 288° (WNW) 10:39:48 437.445
QB50P2 20 Dec 10:32:02 10:35:59 39° 262° (W) 10:39:59 145.880/145.840
AAUSAT CUBESAT 2 20 Dec 10:33:53 10:36:14 15° 297° (WNW) 10:38:35 437.432
DANDE 20 Dec 10:34:32 10:37:32 24° 295° (WNW) 10:41:18 436.750
HO-68 20 Dec 10:40:15 10:45:48 25° 303° (WNW) 10:51:21 435.675
POLYITAN 1 20 Dec 10:40:57 10:44:43 32° 263° (W) 10:48:31 437.675
RS-15 20 Dec 10:42:04 10:51:49 39° 108° (ESE) 11:01:31 29.354- 29.394
ZACube-1 20 Dec 10:43:24 10:47:44 46° 288° (WNW) 10:52:07 437.345
NANOSAT C BR1 20 Dec 10:43:38 10:47:20 30° 264° (W) 10:51:05 145.865
VELOX 1 20 Dec 10:43:39 10:48:05 86° 285° (WNW) 10:52:31 145.980
ESTCUBE 1 20 Dec 10:44:43 10:48:57 39° 98° (E) 10:53:09 437.505/2401.250
CINEMA 3 20 Dec 10:45:16 10:49:01 24° 293° (WNW) 10:52:51 145.822/145.860
ANTELSAT 20 Dec 10:46:09 10:49:27 21° 267° (W) 10:52:49 437.575/2403.000
YUBILEINY 20 Dec 10:52:55 11:01:40 83° 82° (E) 11:10:23 435.215
QB50P1 20 Dec 10:58:34 11:01:48 21° 266° (W) 11:05:03 145.935-145.965
TISAT 1 20 Dec 11:06:48 11:09:25 16° 92° (E) 11:12:02 437.305
SPROUT 20 Dec 11:08:44 11:11:25 16° 92° (E) 11:14:05 437.525
UWE-3 20 Dec 11:10:36 11:14:10 23° 294° (WNW) 11:17:47 435.000/436.395/437.385
FUNcube-1 20 Dec 11:10:45 11:14:29 26° 292° (WNW) 11:18:15 145.935
O/OREOS (USA 219) 20 Dec 11:15:01 11:18:48 27° 257° (WSW) 11:22:35 437.305
AISAT 20 Dec 11:27:04 11:30:56 30° 292° (WNW) 11:34:48 437.250
50 SAT 20 Dec 11:28:22 11:31:59 29° 291° (WNW) 11:35:36 437.505
DX 1 20 Dec 11:29:21 11:30:45 11° 300° (WNW) 11:32:09 434.975-435.025
POPSAT HIP 1 20 Dec 11:30:06 11:30:46 10° 271° (W) 11:31:26 437.405
CUBEBUG 1 20 Dec 11:34:05 11:38:23 63° 286° (WNW) 11:42:39 437.445
HUMSAT D 20 Dec 11:48:15 11:51:04 17° 296° (WNW) 11:53:52 437.325/437.525
Oscar 19 20 Dec 11:51:36 11:56:17 37° 68° (ENE) 12:01:01 437.125/150
Gurwin Techsat 1B 20 Dec 12:02:46 12:04:49 12° 57° (ENE) 12:06:51 435.225
ITAMSAT 1 20 Dec 12:07:39 12:11:28 21° 63° (ENE) 12:15:17 435.822/435.867
BEESAT 20 Dec 12:08:21 12:10:00 12° 89° (E) 12:11:38 436.000
ISS 20 Dec 12:20:26 12:21:24 11° 130° (SE) 12:22:22 145.825
ESTCUBE 1 20 Dec 12:22:12 12:25:34 21° 295° (WNW) 12:28:56 437.505/2401.250
BEESAT 3 20 Dec 12:30:02 12:33:28 26° 114° (ESE) 12:36:56 437.485
AIST 2 20 Dec 12:36:37 12:38:37 13° 108° (ESE) 12:40:38 435.215
TISAT 1 20 Dec 12:41:27 12:45:29 45° 288° (WNW) 12:49:30 437.305
SPROUT 20 Dec 12:43:37 12:47:44 46° 288° (WNW) 12:51:51 437.525
YUBILEINY 20 Dec 12:51:27 12:57:20 21° 282° (WNW) 13:03:14 435.215
RS-15 20 Dec 12:52:46 13:03:34 63° 311° (NW) 13:14:31 29.354- 29.394
BEESAT 2 20 Dec 13:08:51 13:12:54 60° 120° (ESE) 13:17:02 435.950
AUBIESAT-1 20 Dec 13:12:07 13:14:42 16° 95° (E) 13:17:09 437.475
KKS-1 20 Dec 13:17:10 13:18:48 12° 90° (E) 13:20:25 437.445
SWISSCUBE 20 Dec 13:18:31 13:23:17 66° 102° (ESE) 13:28:00 437.505
ITUPSAT 1 20 Dec 13:18:52 13:23:37 60° 101° (E) 13:28:18 437.325
PCSat 20 Dec 13:31:13 13:36:32 64° 116° (ESE) 13:41:55 145.827
Oscar 19 20 Dec 13:31:19 13:35:41 28° 265° (W) 13:40:05 437.125/150
M-CUBED/EXP-1 PRIME 20 Dec 13:36:33 13:40:29 32° 100° (E) 13:44:06 437.505
Gurwin Techsat 1B 20 Dec 13:38:37 13:43:56 83° 75° (ENE) 13:49:16 435.225
BEESAT 20 Dec 13:43:37 13:48:23 76° 286° (WNW) 13:53:08 436.000
HORYU 2 20 Dec 13:44:59 13:49:05 36° 69° (ENE) 13:53:12 437.375
ITAMSAT 1 20 Dec 13:45:32 13:50:34 52° 260° (W) 13:55:39 435.822/435.867
ISS 20 Dec 13:54:11 13:57:30 88° 145° (SE) 14:00:48 145.825
AO-7 20 Dec 13:57:17 14:04:43 38° 59° (ENE) 14:12:12 29.400- 29.500
JAS-2 20 Dec 13:57:18 13:59:34 12° 53° (NE) 14:01:46 435.910
BEESAT 3 20 Dec 14:07:47 14:11:31 33° 312° (NW) 14:15:19 437.485
AIST 2 20 Dec 14:12:28 14:16:41 66° 305° (NW) 14:20:59 435.215
AUBIESAT-1 20 Dec 14:45:47 14:50:01 48° 294° (WNW) 14:53:53 437.475
STARS 20 Dec 14:48:13 14:52:40 76° 103° (ESE) 14:57:07 437.465
BEESAT 2 20 Dec 14:48:38 14:51:32 18° 319° (NW) 14:54:28 435.950
KKS-1 20 Dec 14:51:26 14:55:54 68° 286° (WNW) 15:00:20 437.445
GONETS M04 20 Dec 14:52:18 14:58:41 22° 62° (ENE) 15:05:00
SWISSCUBE 20 Dec 14:57:53 15:00:36 15° 299° (WNW) 15:03:17 437.505
ITUPSAT 1 20 Dec 14:58:03 15:01:01 17° 298° (WNW) 15:03:57 437.325
RS-15 20 Dec 15:09:54 15:18:42 27° 341° (NNW) 15:27:41 29.354- 29.394
M-CUBED/EXP-1 PRIME 20 Dec 15:11:44 15:15:20 25° 300° (WNW) 15:18:43 437.505
PCSat 20 Dec 15:16:08 15:20:24 23° 316° (NW) 15:24:42 145.827
Gurwin Techsat 1B 20 Dec 15:22:22 15:24:32 12° 272° (W) 15:26:43 435.225
HORYU 2 20 Dec 15:22:22 15:25:50 22° 266° (W) 15:29:20 437.375
ISS 20 Dec 15:31:43 15:34:25 23° 344° (NNW) 15:37:07 145.825
JAS-2 20 Dec 15:35:57 15:43:22 57° 71° (ENE) 15:50:09 435.910
CUTE-I 20 Dec 15:37:01 15:38:30 11° 56° (NE) 15:39:59 437.470
AO-7 20 Dec 15:49:10 15:57:14 53° 258° (WSW) 16:05:23 29.400- 29.500
AIST 2 20 Dec 15:54:40 15:56:10 12° 326° (NW) 15:57:40 435.215
MOZHAYETS 4 20 Dec 15:59:51 16:03:27 22° 93° (E) 16:07:01
STARS 20 Dec 16:26:50 16:28:32 12° 300° (WNW) 16:30:15 437.465
AIST 1 20 Dec 16:29:06 16:33:29 75° 279° (W) 16:37:52
Cubesat XI-IV 20 Dec 16:39:30 16:44:26 40° 68° (ENE) 16:49:21 437.490
GONETS M04 20 Dec 16:47:53 16:56:42 85° 264° (W) 17:05:24
ISS 20 Dec 17:09:32 17:11:50 17° 5° (N) 17:14:08 145.825
CUTE-I 20 Dec 17:12:21 17:17:39 76° 74° (ENE) 17:22:59 437.470
JAS-2 20 Dec 17:22:04 17:28:35 30° 266° (W) 17:34:42 435.910
CUBESAT XI-V 20 Dec 17:23:57 17:25:44 12° 89° (E) 17:27:30 437.345
RS-15 20 Dec 17:27:19 17:36:06 26° 17° (NNE) 17:45:08 29.354- 29.394
STRAND 1 20 Dec 17:31:03 17:33:22 13° 89° (E) 17:35:40 437.568
MOZHAYETS 4 20 Dec 17:36:30 17:40:48 38° 290° (WNW) 17:45:02
HO-68 20 Dec 17:38:53 17:41:17 12° 47° (NE) 17:43:41 435.675
MaSat-1 20 Dec 18:01:18 18:03:42 76° 244° (WSW) 18:06:13 437.345
Cubesat XI-IV 20 Dec 18:20:06 18:24:36 28° 265° (W) 18:29:07 437.490
PRISM 20 Dec 18:22:27 18:26:37 78° 285° (WNW) 18:30:44 437.425
CANX-2 20 Dec 18:30:30 18:31:13 10° 60° (ENE) 18:31:55 2200.000
CUSAT 1 20 Dec 18:38:00 18:43:43 22° 65° (ENE) 18:49:53 437.405
ISS 20 Dec 18:46:01 18:49:06 36° 25° (NNE) 18:52:10 145.825
GONETS M04 20 Dec 18:47:03 18:52:06 17° 284° (WNW) 18:57:08
COMPASS 1 20 Dec 18:51:32 18:53:03 12° 61° (ENE) 18:54:34 437.405
BRITE-PL 20 Dec 18:54:53 18:57:43 18° 65° (ENE) 19:00:34 437.365/2234.400
CUTE-I 20 Dec 18:55:36 18:58:17 14° 271° (W) 19:00:59 437.470
SEEDS 20 Dec 18:55:54 18:58:26 16° 64° (ENE) 19:00:58 437.485
CUTE 1.7 + AOD 2 20 Dec 18:58:44 19:01:45 19° 65° (ENE) 19:04:48 437.475
CUBESAT XI-V 20 Dec 18:59:04 19:03:39 69° 285° (WNW) 19:08:13 437.345
STRAND 1 20 Dec 19:08:01 19:13:07 76° 286° (WNW) 19:18:11 437.568
HO-68 20 Dec 19:20:31 19:27:29 57° 67° (ENE) 19:34:28 435.675
GOMX 1 20 Dec 19:20:58 19:24:19 24° 67° (ENE) 19:27:41 467.674
DANDE 20 Dec 19:28:41 19:35:47 41° 72° (ENE) 19:43:46 436.750
Oscar 11 20 Dec 19:35:25 19:38:07 16° 64° (ENE) 19:40:50 145.826/435.025
RS-15 20 Dec 19:40:33 19:51:35 58° 47° (NE) 20:03:05 29.354- 29.394
UKube-1 20 Dec 19:44:04 19:46:42 16° 63° (ENE) 19:49:21 .
DOVE 4 20 Dec 19:45:53 19:49:35 32° 70° (ENE) 19:53:21 437.250
AAUSAT CUBESAT 2 20 Dec 19:48:53 19:52:50 41° 71° (ENE) 19:56:49 437.432
CUBEBUG 2 20 Dec 19:55:26 19:58:02 16° 63° (ENE) 20:00:41 437.445
CANX-2 20 Dec 20:02:12 20:06:28 82° 257° (WSW) 20:10:48 2200.000
ZACube-1 20 Dec 20:06:05 20:08:33 15° 63° (ENE) 20:11:03 437.345
VELOX 1 20 Dec 20:09:54 20:10:42 10° 59° (ENE) 20:11:31 145.980
CINEMA 3 20 Dec 20:10:54 20:14:43 36° 70° (ENE) 20:18:38 145.822/145.860
CUSAT 1 20 Dec 20:19:49 20:27:33 89° 261° (W) 20:36:07 437.405
ISS 20 Dec 20:22:40 20:25:39 33° 222° (SW) 20:28:37 145.825
COMPASS 1 20 Dec 20:23:58 20:28:10 71° 258° (WSW) 20:32:26 437.405
SEEDS 20 Dec 20:29:42 20:33:50 51° 261° (W) 20:38:01 437.485
FUNcube-1 20 Dec 20:31:31 20:35:04 27° 68° (ENE) 20:38:41 145.935
BRITE-PL 20 Dec 20:32:08 20:36:01 37° 262° (W) 20:39:54 437.365/2234.400
UWE-3 20 Dec 20:32:09 20:35:54 33° 69° (ENE) 20:39:44 435.000/436.395/437.385
CUTE 1.7 + AOD 2 20 Dec 20:33:22 20:37:23 40° 262° (W) 20:41:28 437.475
PCSat 20 Dec 20:36:44 20:39:10 13° 35° (NE) 20:41:37 145.827
DELFI C3 20 Dec 20:40:16 20:44:20 64° 75° (ENE) 20:48:27 145.870
50 SAT 20 Dec 20:43:21 20:46:02 17° 65° (ENE) 20:48:44 437.505
DX 1 20 Dec 20:47:04 20:51:24 74° 74° (ENE) 20:55:45 434.975-435.025
BEESAT 3 20 Dec 20:48:45 20:52:12 24° 45° (NE) 20:55:38 437.485
AISAT 20 Dec 20:49:48 20:53:31 27° 67° (ENE) 20:57:14 437.250
STRAND 1 20 Dec 20:50:30 20:51:24 10° 304° (NW) 20:52:19 437.568
SO-50 20 Dec 20:54:24 20:58:54 76° 122° (ESE) 21:03:36 436.795
AIST 2 20 Dec 20:56:20 20:58:59 16° 39° (NE) 21:01:37 435.215
CUBEBUG 1 20 Dec 20:57:40 20:59:31 13° 61° (ENE) 21:01:23 437.445
GOMX 1 20 Dec 20:58:49 21:02:23 27° 265° (W) 21:05:58 467.674
HUMSAT D 20 Dec 21:04:41 21:08:29 37° 71° (ENE) 21:12:21 437.325/437.525
HO-68 20 Dec 21:09:28 21:15:31 29° 265° (W) 21:21:36 435.675
Oscar 11 20 Dec 21:09:40 21:13:53 50° 261° (W) 21:18:08 145.826/435.025
DANDE 20 Dec 21:12:01 21:19:21 50° 267° (W) 21:27:34 436.750
UKube-1 20 Dec 21:18:14 21:22:27 52° 260° (W) 21:26:42 .
DOVE 4 20 Dec 21:24:22 21:27:28 20° 267° (W) 21:30:37 437.250
AAUSAT CUBESAT 2 20 Dec 21:25:51 21:28:41 18° 268° (W) 21:31:32 437.432
BEESAT 2 20 Dec 21:28:19 21:32:25 48° 52° (NE) 21:36:26 435.950
CUBEBUG 2 20 Dec 21:30:19 21:34:21 47° 261° (W) 21:38:30 437.445
TIGRISAT 20 Dec 21:35:55 21:39:13 19° 92° (E) 21:42:31 435.000
POPSAT HIP 1 20 Dec 21:37:44 21:38:41 11° 89° (E) 21:39:39 437.405
ZACube-1 20 Dec 21:40:26 21:44:29 50° 261° (W) 21:48:40 437.345
VELOX 1 20 Dec 21:42:10 21:46:36 87° 256° (WSW) 21:51:02 145.980
ESTCUBE 1 20 Dec 21:45:13 21:49:28 41° 71° (ENE) 21:53:44 437.505/2401.250
CINEMA 3 20 Dec 21:49:07 21:52:06 19° 268° (W) 21:55:08 145.822/145.860
RS-15 20 Dec 21:53:17 22:03:47 47° 250° (WSW) 22:14:45 29.354- 29.394
TISAT 1 20 Dec 22:01:02 22:03:20 15° 63° (ENE) 22:05:38 437.305
YUBILEINY 20 Dec 22:01:50 22:07:22 19° 77° (ENE) 22:12:53 435.215
BUGSAT 1 20 Dec 22:02:44 22:05:15 16° 92° (E) 22:07:45 437.445
DUCHIFAT 1 20 Dec 22:03:41 22:06:57 21° 94° (E) 22:10:13 145.980
UNISAT 6 20 Dec 22:04:20 22:08:42 36° 97° (E) 22:13:04 437.425
CUSAT 1 20 Dec 22:04:34 22:09:53 20° 277° (W) 22:15:31 437.405
SPROUT 20 Dec 22:04:36 22:07:00 15° 63° (ENE) 22:09:25 437.525
FUNcube-1 20 Dec 22:07:52 22:11:23 26° 265° (W) 22:14:58 145.935
UWE-3 20 Dec 22:09:18 22:12:32 21° 267° (W) 22:15:49 435.000/436.395/437.385
QB50P2 20 Dec 22:16:56 22:20:44 30° 96° (E) 22:24:30 145.880/145.840
50 SAT 20 Dec 22:17:10 22:20:57 39° 262° (W) 22:24:47 437.505
PCSat 20 Dec 22:18:23 22:23:46 59° 56° (ENE) 22:29:06 145.827
DELFI C3 20 Dec 22:19:02 22:20:02 11° 271° (W) 22:21:02 145.870
POLYITAN 1 20 Dec 22:25:39 22:29:40 38° 98° (E) 22:33:40 437.675
AISAT 20 Dec 22:26:13 22:30:03 29° 264° (W) 22:33:55 437.250
BEESAT 3 20 Dec 22:26:37 22:30:30 38° 243° (WSW) 22:34:20 437.485
DX 1 20 Dec 22:27:44 22:28:08 10° 271° (W) 22:28:32 434.975-435.025
NANOSAT C BR1 20 Dec 22:27:46 22:31:46 39° 98° (E) 22:35:46 145.865
CUBEBUG 1 20 Dec 22:30:59 22:35:20 69° 258° (WSW) 22:39:42 437.445
AIST 2 20 Dec 22:33:51 22:38:10 80° 238° (WSW) 22:42:24 435.215
ANTELSAT 20 Dec 22:36:03 22:40:47 78° 103° (ESE) 22:45:31 437.575/2403.000
SO-50 20 Dec 22:36:48 22:40:01 18° 322° (NW) 22:43:19 436.795
HUMSAT D 20 Dec 22:41:30 22:44:26 19° 267° (W) 22:47:25 437.325/437.525
QB50P1 20 Dec 22:42:04 22:46:17 57° 101° (E) 22:50:28 145.935-145.965
SWISSCUBE 20 Dec 22:52:43 22:53:36 11° 58° (ENE) 22:54:29 437.505
BEESAT 2 20 Dec 23:07:31 23:10:17 17° 249° (WSW) 23:13:02 435.950
POPSAT HIP 1 20 Dec 23:10:47 23:15:02 69° 285° (WNW) 23:19:17 437.405
TIGRISAT 20 Dec 23:11:40 23:16:11 48° 288° (WNW) 23:20:42 435.000
BEESAT 20 Dec 23:15:20 23:18:18 17° 62° (ENE) 23:21:16 436.000
ESTCUBE 1 20 Dec 23:23:10 23:26:30 20° 267° (W) 23:29:51 437.505/2401.250
TISAT 1 20 Dec 23:34:36 23:38:43 54° 260° (W) 23:42:51 437.305
BUGSAT 1 20 Dec 23:37:06 23:40:56 42° 288° (WNW) 23:44:47 437.445
SPROUT 20 Dec 23:38:28 23:42:39 54° 260° (W) 23:46:52 437.525
DUCHIFAT 1 20 Dec 23:39:02 23:42:53 34° 290° (WNW) 23:46:44 145.980
UNISAT 6 20 Dec 23:41:28 23:45:18 25° 294° (WNW) 23:49:08 437.425
O/OREOS (USA 219) 20 Dec 23:48:43 23:52:36 30° 104° (ESE) 23:56:29 437.305
QB50P2 20 Dec 23:53:03 23:56:31 25° 293° (WNW) 00:00:00 145.880/145.840
YUBILEINY 20 Dec 23:54:09 00:02:55 89° 277° (W) 00:11:41 435.215
AUBIESAT-1 21 Dec 00:00:27 00:04:37 29° 62° (ENE) 00:08:49 437.475
POLYITAN 1 21 Dec 00:02:12 00:05:22 21° 294° (WNW) 00:08:33 437.675
PCSat 21 Dec 00:02:49 00:06:42 20° 254° (WSW) 00:10:34 145.827
NANOSAT C BR1 21 Dec 00:04:19 00:07:23 20° 295° (WNW) 00:10:27 145.865
Oscar 19 21 Dec 00:04:24 00:06:19 12° 88° (E) 00:08:14 437.125/150
ANTELSAT 21 Dec 00:14:47 00:16:57 13° 299° (WNW) 00:19:06 437.575/2403.000
KKS-1 21 Dec 00:16:39 00:18:42 13° 61° (ENE) 00:20:46 437.445
QB50P1 21 Dec 00:19:26 00:21:42 14° 297° (WNW) 00:23:59 145.935-145.965
